Terminal Aerodrome Forecast
Issued by NWS Tampa Bay Area, FL

Home | Current Version | Previous Version | Text Only | Print | Product List | Glossary Off
Versions: 1 2 3 4 5 6 7 8 9 10 11 12 13 14 15 16 17 18

000
FTUS42 KTBW 191100
TAFFMY
TAF
KFMY 191120Z 1912/2012 VRB05KT P6SM VCSH SCT040 BKN120 OVC200
     FM191500 06007KT 6SM SHRA VCTS BKN040CB BKN100 OVC150
      TEMPO 1916/1920 4SM TSRA BKN030CB
     FM200100 05005KT 6SM SHRA BR SCT020 BKN035 OVC100=

USA.gov is the U.S. government's official web portal to all federal, state and local government web resources and services.